Time,TemperatureF,DewpointF,PressureIn,WindDirection,WindDirectionDegrees,WindSpeedMPH,WindSpeedGustMPH,Humidity,HourlyPrecipIn,Conditions,Clouds,dailyrainin,SoftwareType,DateUTC
2013-04-03 00:00:00,65.0,47.0,-100.00,North,-999,-999.0,-999.0,51,-99.99,,,0.00,,2013-04-03 07:00:00,
2013-04-03 00:53:00,65.0,47.0,-100.00,North,-999,-999.0,-999.0,51,-99.99,,,0.00,,2013-04-03 07:53:00,
2013-04-03 01:00:00,65.0,48.0,-100.00,North,-999,-999.0,-999.0,54,-99.99,,,0.00,,2013-04-03 08:00:00,
2013-04-03 01:52:00,65.0,48.0,-100.00,North,-999,-999.0,-999.0,54,-99.99,,,0.00,,2013-04-03 08:52:00,
2013-04-03 02:00:00,64.0,48.0,-100.00,North,-999,-999.0,-999.0,56,-99.99,,,0.00,,2013-04-03 09:00:00,
2013-04-03 02:53:00,64.0,48.0,-100.00,North,-999,-999.0,-999.0,56,-99.99,,,0.00,,2013-04-03 09:53:00,
2013-04-03 03:00:00,64.0,49.0,-100.00,North,-999,-999.0,-999.0,58,-99.99,,,0.00,,2013-04-03 10:00:00,
2013-04-03 03:53:00,64.0,49.0,-100.00,North,-999,-999.0,-999.0,58,-99.99,,,0.00,,2013-04-03 10:53:00,
2013-04-03 04:00:00,63.0,49.0,-100.00,North,-999,-999.0,-999.0,59,-99.99,,,0.00,,2013-04-03 11:00:00,
2013-04-03 04:53:00,63.0,49.0,-100.00,North,-999,-999.0,-999.0,59,-99.99,,,0.00,,2013-04-03 11:53:00,
2013-04-03 05:00:00,63.0,48.0,-100.00,North,-999,-999.0,-999.0,59,-99.99,,,0.00,,2013-04-03 12:00:00,
2013-04-03 06:00:00,63.0,48.0,-100.00,North,-999,-999.0,-999.0,58,-99.99,,,0.00,,2013-04-03 13:00:00,
2013-04-03 06:52:00,63.0,48.0,-100.00,North,-999,-999.0,-999.0,58,-99.99,,,0.00,,2013-04-03 13:52:00,
2013-04-03 07:00:00,64.0,47.0,-100.00,North,-999,-999.0,-999.0,53,-99.99,,,0.00,,2013-04-03 14:00:00,
2013-04-03 07:52:00,64.0,47.0,-100.00,North,-999,-999.0,-999.0,53,-99.99,,,0.00,,2013-04-03 14:52:00,
2013-04-03 08:00:00,65.0,46.0,-100.00,North,-999,-999.0,-999.0,50,-99.99,,,0.00,,2013-04-03 15:00:00,
2013-04-03 08:53:00,65.0,46.0,-100.00,North,-999,-999.0,-999.0,50,-99.99,,,0.00,,2013-04-03 15:53:00,
2013-04-03 09:00:00,69.0,46.0,-100.00,North,-999,-999.0,-999.0,43,0.00,,,0.00,,2013-04-03 16:00:00,
2013-04-03 10:00:00,72.0,46.0,-100.00,North,-999,-999.0,-999.0,40,0.00,,,0.00,,2013-04-03 17:00:00,
2013-04-03 10:53:00,72.0,46.0,-100.00,North,-999,-999.0,-999.0,40,0.00,,,0.00,,2013-04-03 17:53:00,
2013-04-03 11:00:00,73.0,47.0,-100.00,North,-999,-999.0,-999.0,39,0.00,,,0.00,,2013-04-03 18:00:00,
2013-04-03 11:52:00,73.0,47.0,-100.00,North,-999,-999.0,-999.0,39,0.00,,,0.00,,2013-04-03 18:52:00,
2013-04-03 12:00:00,77.0,46.0,-100.00,North,-999,-999.0,-999.0,33,0.00,,,0.00,,2013-04-03 19:00:00,
2013-04-03 13:00:00,79.0,47.0,-100.00,North,-999,-999.0,-999.0,32,0.00,,,0.00,,2013-04-03 20:00:00,
2013-04-03 13:53:00,79.0,47.0,-100.00,North,-999,-999.0,-999.0,32,0.00,,,0.00,,2013-04-03 20:53:00,
2013-04-03 17:00:00,83.0,48.0,-100.00,North,-999,-999.0,-999.0,29,-99.99,,,0.00,,2013-04-04 00:00:00,
2013-04-03 17:52:00,83.0,48.0,-100.00,North,-999,-999.0,-999.0,29,-99.99,,,0.00,,2013-04-04 00:52:00,
2013-04-03 19:00:00,79.0,48.0,-100.00,North,-999,-999.0,-999.0,34,-99.99,,,0.00,,2013-04-04 02:00:00,
2013-04-03 20:00:00,74.0,49.0,-100.00,North,-999,-999.0,-999.0,41,0.00,,,-99.99,,2013-04-04 03:00:00,
2013-04-03 20:53:00,74.0,49.0,-100.00,North,-999,-999.0,-999.0,41,0.00,,,-99.99,,2013-04-04 03:53:00,
2013-04-03 21:00:00,75.0,51.0,-100.00,North,-999,-999.0,-999.0,43,0.00,,,-99.99,,2013-04-04 04:00:00,
2013-04-03 21:53:00,75.0,51.0,-100.00,North,-999,-999.0,-999.0,43,0.00,,,-99.99,,2013-04-04 04:53:00,
2013-04-03 23:00:00,73.0,51.0,-100.00,North,-999,-999.0,-999.0,46,-99.99,,,0.00,,2013-04-04 06:00:00,
2013-04-03 23:52:00,73.0,51.0,-100.00,North,-999,-999.0,-999.0,46,-99.99,,,0.00,,2013-04-04 06:52:00,